timestamp,wind_dir_avg,wind_spd_max_dir,wind_spd_avg,wind_spd_gust,battery_voltage,lat,long
2017-11-29 00:00:00+00:00,338.0,348.0,7.9,10.39,,47.59359,-54.27349
2017-11-29 00:10:00+00:00,325.0,324.0,8.07,9.43,,47.59359,-54.27349
2017-11-29 00:20:00+00:00,345.0,339.0,7.12,8.3,,47.59359,-54.27349
2017-11-29 00:30:00+00:00,346.0,358.0,7.74,9.3,,47.59359,-54.27349
2017-11-29 00:40:00+00:00,342.0,345.0,8.18,10.31,,47.59359,-54.27349
2017-11-29 00:50:00+00:00,348.0,348.0,7.48,9.29,,47.59359,-54.27349
2017-11-29 01:00:00+00:00,354.0,359.0,6.75,8.7,,47.59359,-54.27349
2017-11-29 01:10:00+00:00,341.0,339.0,6.87,8.42,,47.59359,-54.27349
2017-11-29 01:20:00+00:00,326.0,329.0,7.1,7.98,,47.59359,-54.27349
2017-11-29 01:30:00+00:00,351.0,350.0,7.52,8.14,,47.59359,-54.27349
2017-11-29 01:40:00+00:00,340.0,342.0,5.67,6.98,,47.59359,-54.27349
2017-11-29 01:50:00+00:00,338.0,345.0,5.72,7.18,,47.59359,-54.27349
2017-11-29 02:00:00+00:00,339.0,353.0,4.85,6.58,,47.59359,-54.27349
2017-11-29 02:10:00+00:00,322.0,323.0,7.16,8.63,,47.59359,-54.27349
2017-11-29 02:20:00+00:00,342.0,348.0,6.16,7.23,,47.59359,-54.27349
2017-11-29 02:30:00+00:00,337.0,330.0,5.76,6.83,,47.59359,-54.27349
2017-11-29 02:40:00+00:00,355.0,355.0,6.56,7.64,,47.59359,-54.27349
2017-11-29 02:50:00+00:00,343.0,343.0,5.56,7.83,,47.59359,-54.27349
2017-11-29 03:00:00+00:00,322.0,327.0,7.22,9.66,,47.59359,-54.27349
2017-11-29 03:10:00+00:00,328.0,332.0,6.11,7.06,,47.59359,-54.27349
2017-11-29 03:20:00+00:00,338.0,342.0,4.83,7.14,,47.59359,-54.27349
2017-11-29 03:30:00+00:00,321.0,327.0,6.04,7.62,,47.59359,-54.27349
2017-11-29 03:40:00+00:00,332.0,339.0,5.75,7.54,,47.59359,-54.27349
2017-11-29 03:50:00+00:00,308.0,313.0,6.07,7.95,,47.59359,-54.27349
2017-11-29 04:00:00+00:00,328.0,322.0,4.2,5.47,,47.59359,-54.27349
2017-11-29 04:10:00+00:00,335.0,325.0,2.94,4.39,,47.59359,-54.27349
2017-11-29 04:20:00+00:00,331.0,331.0,5.47,6.21,,47.59359,-54.27349
2017-11-29 04:30:00+00:00,321.0,317.0,5.22,6.57,,47.59359,-54.27349
2017-11-29 04:40:00+00:00,331.0,321.0,5.77,7.72,,47.59359,-54.27349
2017-11-29 04:50:00+00:00,335.0,334.0,6.72,7.42,,47.59359,-54.27349
2017-11-29 05:00:00+00:00,296.0,288.0,4.3,5.26,,47.59359,-54.27349
2017-11-29 05:10:00+00:00,315.0,314.0,4.85,6.45,,47.59359,-54.27349
2017-11-29 05:20:00+00:00,305.0,297.0,2.28,3.08,,47.59359,-54.27349
2017-11-29 05:30:00+00:00,301.0,283.0,5.22,7.21,,47.59359,-54.27349
2017-11-29 05:40:00+00:00,309.0,313.0,3.73,5.74,,47.59359,-54.27349
2017-11-29 05:50:00+00:00,320.0,312.0,4.98,6.39,,47.59359,-54.27349
2017-11-29 06:00:00+00:00,333.0,335.0,4.5,5.64,,47.59359,-54.27349
2017-11-29 06:10:00+00:00,304.0,305.0,3.76,4.68,,47.59359,-54.27349
2017-11-29 06:20:00+00:00,299.0,297.0,3.05,4.02,,47.59359,-54.27349
2017-11-29 06:30:00+00:00,295.0,303.0,3.14,4.04,,47.59359,-54.27349
2017-11-29 06:40:00+00:00,347.0,350.0,2.39,3.97,,47.59359,-54.27349
2017-11-29 06:50:00+00:00,296.0,289.0,3.13,3.74,,47.59359,-54.27349
2017-11-29 07:00:00+00:00,292.0,281.0,3.59,4.19,,47.59359,-54.27349
2017-11-29 07:10:00+00:00,324.0,316.0,4.22,4.9,,47.59359,-54.27349
2017-11-29 07:20:00+00:00,317.0,307.0,3.84,5.63,,47.59359,-54.27349
2017-11-29 07:30:00+00:00,333.0,332.0,4.59,5.75,,47.59359,-54.27349
2017-11-29 07:40:00+00:00,346.0,353.0,3.29,4.48,,47.59359,-54.27349
2017-11-29 07:50:00+00:00,323.0,325.0,3.2,4.29,,47.59359,-54.27349
2017-11-29 08:00:00+00:00,326.0,329.0,3.13,4.22,,47.59359,-54.27349
2017-11-29 08:10:00+00:00,313.0,307.0,4.1,5.33,,47.59359,-54.27349
2017-11-29 08:20:00+00:00,322.0,332.0,2.74,4.03,,47.59359,-54.27349
2017-11-29 08:30:00+00:00,302.0,306.0,2.45,3.06,,47.59359,-54.27349
2017-11-29 08:40:00+00:00,341.0,352.0,2.51,3.28,,47.59359,-54.27349
2017-11-29 08:50:00+00:00,309.0,308.0,2.38,2.99,,47.59359,-54.27349
2017-11-29 09:00:00+00:00,321.0,323.0,3.2,4.18,,47.59359,-54.27349
2017-11-29 09:10:00+00:00,320.0,321.0,3.55,4.12,,47.59359,-54.27349
2017-11-29 09:20:00+00:00,306.0,295.0,2.43,3.67,,47.59359,-54.27349
2017-11-29 09:30:00+00:00,317.0,338.0,1.67,2.2,,47.59359,-54.27349
2017-11-29 09:40:00+00:00,313.0,315.0,2.39,3.44,,47.59359,-54.27349
2017-11-29 09:50:00+00:00,328.0,329.0,2.22,2.78,,47.59359,-54.27349
2017-11-29 10:00:00+00:00,311.0,317.0,2.86,3.85,,47.59359,-54.27349
2017-11-29 10:10:00+00:00,291.0,290.0,3.07,4.0,,47.59359,-54.27349
2017-11-29 10:20:00+00:00,295.0,294.0,3.53,4.32,,47.59359,-54.27349
2017-11-29 10:30:00+00:00,276.0,272.0,2.98,4.03,,47.59359,-54.27349
2017-11-29 10:40:00+00:00,275.0,281.0,3.57,4.37,,47.59359,-54.27349
2017-11-29 10:50:00+00:00,256.0,285.0,1.68,2.55,,47.59359,-54.27349
2017-11-29 11:00:00+00:00,245.0,247.0,1.95,2.6,,47.59359,-54.27349
2017-11-29 11:10:00+00:00,241.0,238.0,3.71,4.48,,47.59359,-54.27349
2017-11-29 11:20:00+00:00,226.0,220.0,3.96,4.69,,47.59359,-54.27349
2017-11-29 11:30:00+00:00,230.0,229.0,4.43,5.89,,47.59359,-54.27349
2017-11-29 11:40:00+00:00,254.0,258.0,5.74,6.75,,47.59359,-54.27349
2017-11-29 11:50:00+00:00,257.0,258.0,6.63,7.2,,47.59359,-54.27349
2017-11-29 12:00:00+00:00,229.0,232.0,6.79,7.77,,47.59359,-54.27349
2017-11-29 12:10:00+00:00,241.0,248.0,5.83,6.59,,47.59359,-54.27349
2017-11-29 12:20:00+00:00,231.0,232.0,5.6,6.97,,47.59359,-54.27349
2017-11-29 12:30:00+00:00,223.0,234.0,4.78,5.82,,47.59359,-54.27349
2017-11-29 12:40:00+00:00,220.0,226.0,5.66,6.51,,47.59359,-54.27349
2017-11-29 12:50:00+00:00,214.0,218.0,5.6,6.61,,47.59359,-54.27349
2017-11-29 13:00:00+00:00,223.0,215.0,6.27,7.57,,47.59359,-54.27349
2017-11-29 13:10:00+00:00,222.0,223.0,6.25,7.95,,47.59359,-54.27349
2017-11-29 13:20:00+00:00,212.0,213.0,6.91,8.2,,47.59359,-54.27349
2017-11-29 13:30:00+00:00,225.0,228.0,7.88,9.11,,47.59359,-54.27349
2017-11-29 13:40:00+00:00,226.0,226.0,7.57,8.71,,47.59359,-54.27349
2017-11-29 13:50:00+00:00,237.0,243.0,7.25,8.18,,47.59359,-54.27349
2017-11-29 14:00:00+00:00,232.0,239.0,7.64,10.87,,47.59359,-54.27349
2017-11-29 14:10:00+00:00,242.0,242.0,7.67,8.96,,47.59359,-54.27349
2017-11-29 14:20:00+00:00,224.0,224.0,9.45,10.81,,47.59359,-54.27349
2017-11-29 14:30:00+00:00,231.0,234.0,9.73,14.01,,47.59359,-54.27349
2017-11-29 14:40:00+00:00,231.0,233.0,9.69,12.07,,47.59359,-54.27349
2017-11-29 14:50:00+00:00,234.0,235.0,9.72,11.32,,47.59359,-54.27349
2017-11-29 15:00:00+00:00,237.0,238.0,9.94,12.14,,47.59359,-54.27349
2017-11-29 15:10:00+00:00,227.0,233.0,11.24,13.61,,47.59359,-54.27349
2017-11-29 15:20:00+00:00,229.0,235.0,11.26,14.82,,47.59359,-54.27349
2017-11-29 15:30:00+00:00,230.0,233.0,10.46,13.11,,47.59359,-54.27349
2017-11-29 15:40:00+00:00,229.0,231.0,10.3,12.01,,47.59359,-54.27349
2017-11-29 15:50:00+00:00,231.0,235.0,11.08,13.49,,47.59359,-54.27349
2017-11-29 16:00:00+00:00,230.0,236.0,11.03,12.71,,47.59359,-54.27349
2017-11-29 16:10:00+00:00,233.0,226.0,10.84,12.42,,47.59359,-54.27349
2017-11-29 16:20:00+00:00,231.0,232.0,11.63,13.55,,47.59359,-54.27349
2017-11-29 16:30:00+00:00,236.0,236.0,11.93,14.23,,47.59359,-54.27349
2017-11-29 16:40:00+00:00,237.0,238.0,12.18,14.06,,47.59359,-54.27349
2017-11-29 16:50:00+00:00,238.0,240.0,15.13,20.46,,47.59359,-54.27349
2017-11-29 17:00:00+00:00,230.0,243.0,12.35,14.01,,47.59359,-54.27349
2017-11-29 17:10:00+00:00,230.0,230.0,12.47,13.8,,47.59359,-54.27349
2017-11-29 17:20:00+00:00,230.0,234.0,13.0,15.77,,47.59359,-54.27349
2017-11-29 17:30:00+00:00,228.0,222.0,12.23,14.16,,47.59359,-54.27349
2017-11-29 17:40:00+00:00,232.0,230.0,12.86,14.89,,47.59359,-54.27349
2017-11-29 17:50:00+00:00,226.0,232.0,14.89,19.54,,47.59359,-54.27349
2017-11-29 18:00:00+00:00,227.0,228.0,15.09,17.54,,47.59359,-54.27349
2017-11-29 18:10:00+00:00,229.0,237.0,15.4,18.28,,47.59359,-54.27349
2017-11-29 18:20:00+00:00,224.0,232.0,15.39,19.42,,47.59359,-54.27349
2017-11-29 18:30:00+00:00,226.0,226.0,14.1,16.4,,47.59359,-54.27349
2017-11-29 18:40:00+00:00,233.0,243.0,14.86,18.14,,47.59359,-54.27349
2017-11-29 18:50:00+00:00,226.0,232.0,15.63,20.7,,47.59359,-54.27349
2017-11-29 19:00:00+00:00,237.0,243.0,14.75,19.68,,47.59359,-54.27349
2017-11-29 19:10:00+00:00,230.0,235.0,16.59,20.82,,47.59359,-54.27349
2017-11-29 19:20:00+00:00,230.0,226.0,12.38,14.76,,47.59359,-54.27349
2017-11-29 19:30:00+00:00,241.0,243.0,14.34,19.0,,47.59359,-54.27349
2017-11-29 19:40:00+00:00,235.0,240.0,16.45,19.89,,47.59359,-54.27349
2017-11-29 19:50:00+00:00,235.0,232.0,14.25,17.53,,47.59359,-54.27349
2017-11-29 20:00:00+00:00,228.0,232.0,14.82,17.4,,47.59359,-54.27349
2017-11-29 20:10:00+00:00,235.0,235.0,14.36,16.05,,47.59359,-54.27349
2017-11-29 20:20:00+00:00,233.0,240.0,13.56,17.87,,47.59359,-54.27349
2017-11-29 20:30:00+00:00,235.0,236.0,13.72,16.74,,47.59359,-54.27349
2017-11-29 20:40:00+00:00,230.0,239.0,14.73,20.9,,47.59359,-54.27349
2017-11-29 20:50:00+00:00,231.0,226.0,16.26,20.12,,47.59359,-54.27349
2017-11-29 21:00:00+00:00,229.0,234.0,14.66,18.9,,47.59359,-54.27349
2017-11-29 21:10:00+00:00,227.0,229.0,14.2,15.93,,47.59359,-54.27349
2017-11-29 21:20:00+00:00,228.0,230.0,15.74,17.49,,47.59359,-54.27349
2017-11-29 21:30:00+00:00,227.0,232.0,13.57,15.5,,47.59359,-54.27349
2017-11-29 21:40:00+00:00,224.0,229.0,15.13,18.66,,47.59359,-54.27349
2017-11-29 21:50:00+00:00,230.0,226.0,15.02,16.73,,47.59359,-54.27349
2017-11-29 22:00:00+00:00,224.0,221.0,14.72,18.21,,47.59359,-54.27349
2017-11-29 22:10:00+00:00,225.0,221.0,13.28,15.74,,47.59359,-54.27349
2017-11-29 22:20:00+00:00,229.0,231.0,14.6,16.95,,47.59359,-54.27349
2017-11-29 22:30:00+00:00,225.0,230.0,13.59,15.96,,47.59359,-54.27349
2017-11-29 22:40:00+00:00,221.0,226.0,13.58,15.39,,47.59359,-54.27349
2017-11-29 22:50:00+00:00,221.0,223.0,13.43,15.61,,47.59359,-54.27349
2017-11-29 23:00:00+00:00,219.0,218.0,13.79,15.87,,47.59359,-54.27349
2017-11-29 23:10:00+00:00,220.0,218.0,12.66,15.32,,47.59359,-54.27349
2017-11-29 23:20:00+00:00,221.0,221.0,13.84,16.12,,47.59359,-54.27349
2017-11-29 23:30:00+00:00,220.0,219.0,12.29,13.6,,47.59359,-54.27349
2017-11-29 23:40:00+00:00,220.0,226.0,13.66,15.77,,47.59359,-54.27349
2017-11-29 23:50:00+00:00,220.0,220.0,12.78,15.6,,47.59359,-54.27349
